Regional Weather Roundup
Issued by NWS New Orleans/Baton Rouge, LA

Home | Current Version | Previous Version | Text Only | Print | Product List | Glossary Off
Versions: 1 2 3 4 5 6 7 8 9 10 11 12 13 14 15 16 17 18 19 20 21 22 23 24 25 26 27 28 29 30 31 32 33 34 35 36 37 38 39 40 41 42 43 44 45 46 47 48 49 50

029
ASUS44 KLIX 142201
RWRLIX
NEW ORLEANS REGIONAL WEATHER ROUNDUP
NATIONAL WEATHER SERVICE NEW ORLEANS LA
500 PM CDT SUN SEP 14 2014

NOTE: "FAIR" INDICATES FEW OR NO CLOUDS BELOW 12,000 FEET WITH NO
      SIGNIFICANT WEATHER AND/OR OBSTRUCTIONS TO VISIBILITY.
      SKY/WX - SKY CONDITION AND SIGNIFICANT WEATHER.
      TMP - AIR TEMPERATURE.     DP    - DEWPOINT TEMPERATURE.
      RH  - RELATIVE HUMIDITY.   PRES  - PRESSURE.
      HI  - HEAT INDEX.          WCI   - WIND CHILL INDEX.

*  THESE STATIONS ARE NOT NWS OR FAA STATIONS AND ARE NOT UNDER
   NWS QUALITY CONTROL.

LAZ038-040-048-061>063-065>067-069-142300-
SOUTHEAST LOUISIANA

CITY           SKY/WX    TMP DP  RH WIND       PRES   REMARKS
N.O. AUDUBON     N/A     87  73  61 MISG        N/A
N.O. INTL ARPT MOSUNNY   89  72  56 NE8       30.04F HX  96
N.O. LAKEFRONT MOSUNNY   88  73  61 E6        30.05F HX  95
N.O. DOWNTOWN*   N/A     88  70  55 N8        30.05S
SLIDELL        MOSUNNY   88  74  63 S5        30.04S HX  96
BATON ROUGE    MOSUNNY   87  72  60 NE7       30.06F
BOOTHVILLE     MOSUNNY   83  76  79 E14G22    30.05R
BELLE CHASSE   MOSUNNY   88  72  58 NE8       30.04S
BOGALUSA*        N/A     90  71  53 NE8       30.07S HX  95
GALLIANO*      NOT AVBL
NEW ROADS*       N/A     82  72  72 NW6       30.07F
GONZALES*        N/A     87  76  68 N6        30.04F HX  97
HAMMOND*       NOT AVBL
HOUMA*         MOSUNNY   90  72  55 NE8       30.04  HX  96
PORT FOURCHON* MOCLDY    86  77  74 NE13      30.06S HX  97

$$

MSZ070-080>082-142300-
SOUTHERN MISSISSIPPI

CITY           SKY/WX    TMP DP  RH WIND       PRES   REMARKS
MCCOMB         MOSUNNY   87  69  54 NE6       30.08S
GULFPORT       MOSUNNY   88  74  63 SE12      30.04S HX  96
BILOXI         NOT AVBL
PASCAGOULA     CLOUDY    84  75  74 W3        30.05R

$$

COASTAL OBSERVATIONS
LAKE AND NEARSHORE STATIONS

STATION/POSITION TIME  TEMP    WIND        PRES    WAVE
                       AIR SEA DIR/SP/G            HT/PER
                 (UTC) (F)     (DEG/KT/KT) (MB)    (FT/S)
PASCAGOULA       2100   88     140/  8/ 14 1017.0
WAVELAND YACHT   2100   84     160/  9/ 11 1016.9
GRAND ISLE       2100   84 85   80/ 11/ 16 1017.7
SOUTHWEST PASS   2100   90 91   90/ 18/ 19 1017.1
NEW CANAL        2100   84 83   20/  4/  5 1018.0
SHELL BEACH      2100   84 80   70/  8/ 11 1017.5

OFFSHORE STATIONS

STATION/POSITION TIME  TEMP    WIND        PRES    WAVE
                       AIR SEA DIR/SP/G            HT/PER
                 (UTC) (F)     (DEG/KT/KT) (MB)    (FT/S)
64 S DAUPHIN ISL 2109   83 87   60/ 12/ 16 1017.6    4/ 7

$$




USA.gov is the U.S. government's official web portal to all federal, state and local government web resources and services.